Погода в Хаверфордвесте

Великобритания     51°47′55″N   4°58′38″W
темп.,
°C
ветер,
м/с
пор.,
м/с
влажн.,
%
обл.,
%
осадки,
мм/ч
давл.,
гПа
погр.,
м
16 июня, ср
ср1601:00+13ю4692100 0.0 1016106
04:00+13ю4796100 0.0 1013165
07:00+15ю5795100 0.1 1012249
10:00+16ююз5789100 0.1 1012404
13:00+14з5592100 0.2 1011394
16:00+13з4578100 0.0 1011366
19:00+13зсз3679100 0.0 1011451
22:00+13з3580100 0.0 1011274
17 июня, чт
чт1701:00+12зсз4687100 0.0 1011223
04:00+12зсз4686100 0.0 1011229
07:00+13сз4687100 0.0 1012313
10:00+14ссз677571 0.0 1013698
13:00+15ссз557072 0.0 1014993
16:00+15ссз456799 0.0 1015923
19:00+14ссз457215 0.0 1016553
22:00+11с3585100 0.0 1017129
18 июня, пт
пт1801:00+10с478172 0.0 1017138
04:00+11с61187100 0.0 1018357
07:00+12с8127998 0.0 1018503
10:00+13ссв9106940 0.0 1019681
13:00+14с896850 0.0 1018804
16:00+14с78652 0.0 1019725
19:00+13с57685 0.0 1018434
22:00+9с46803 0.0 1019146
19 июня, сб
сб1901:00+9с34782 0.0 101894
04:00+8св228180 0.0 101754
07:00+10в227738 0.0 101687
10:00+15юв567634 0.0 1015580
13:00+15юв6883100 0.1 1013649
16:00+16вюв5884100 0.1 1011395
19:00+15юв61287100 0.4 1009525
22:00+14вюв51393100 1.6 1008474
20 июня, вс
вс2001:00+14в71496100 4.5 1005539
04:00+13всв81595100 9.0 1001500
07:00+12всв5796100 22.7 999314
10:00+13ююв3696100 1.1 999366
13:00+14ю61087100 1.9 1001619
16:00+16юв488121 0.1 1002604
19:00+16ююв688486 0.4 1002561
22:00+14вюв3492100 0.0 100360